User: anonymous   Login
Location: Clanezzo
(45.7500°N, 9.6000°E)
Time: 15:39:02
(UTC+00:00)
Language:

Cosmos 2084 Rocket - Orbit

View from above orbital plane
View from above orbital plane
View from above satellite
View from above satellite

Ground track
Ground track

The orbit data is extracted from the following two-line orbital elements,

1 20666U 90055D   21208.33958683  .00000231  00000-0  38318-4 0  9990
2 20666  62.7838 171.5177 0103240  39.2840 321.5685 14.92524744685192
Epoch (UTC): 27 July 2021 08:09:00
Eccentricity: 0.0103240
inclination: 62.7838°
perigee height: 518 km
apogee height: 662 km
right ascension of ascending node: 171.5177°
argument of perigee: 39.2840°
revolutions per day: 14.92524744
mean anomaly at epoch: 321.5685°
orbit number at epoch: 68519

The dashed part of the orbit path shows where the satellite is in the earth's shadow,  

DLR